Location: Unspecified
(0.0000°N, 0.0000°E)
Time: 18:13:42
(UTC+00:00)

ISS - Visible Passes

Search period start: 22 September 2014 00:00
Search period end: 02 October 2014 00:00
Orbit: 413 x 416 km, 51.6° (Epoch: 22 September)

Date Brightness Start Highest point End Pass type
(mag) Time Alt. Az. Time Alt. Az. Time Alt. Az.
28 Sep -0.6 19:09:34 10° S 19:09:41 11° S 19:09:41 11° S visible
29 Sep 0.2 19:56:39 10° WSW 19:56:41 10° WSW 19:56:41 10° WSW visible
30 Sep -3.3 19:07:16 10° SW 19:10:35 77° NW 19:10:50 71° N visible
01 Oct -2.7 18:18:27 10° SSW 18:21:35 38° SE 18:24:42 10° NE visible
